Wetterdaten: Woche 13.02.12 - 19.02.12 (KW7)
Datum Zeit Temp. Innen Temp. Aussen UV X Diff Temp. Feuchte Inne Feuchte Auss Sonnenschein Luftdruck Regen ab 0,1 Wind Sonnenschein T Regendauer Windben
13.02.2012 00:00 12,6 C -3,1 C 0,0 UV-I 0,2 C 45 % 88 % 0 % 1028,4 hPa 0,0 l/m 1,7 km/h (1 Bft) 0,00 h 0,00 h 4,2 km/h (1 Bft)
13.02.2012 01:00 12,6 C -3,0 C 0,0 UV-I 0,2 C 45 % 90 % 0 % 1028,3 hPa 0,0 l/m 2,4 km/h (1 Bft) 0,00 h 0,00 h 5,0 km/h (1 Bft)
13.02.2012 02:00 12,6 C -3,0 C 0,0 UV-I 0,2 C 45 % 92 % 0 % 1027,8 hPa 0,0 l/m 3,6 km/h (1 Bft) 0,00 h 0,00 h 5,9 km/h (2 Bft)
13.02.2012 03:00 12,6 C -2,9 C 0,0 UV-I 0,2 C 46 % 93 % 0 % 1027,1 hPa 0,0 l/m 2,9 km/h (1 Bft) 0,00 h 0,00 h 4,2 km/h (1 Bft)
13.02.2012 04:00 12,6 C -2,7 C 0,0 UV-I 0,2 C 46 % 94 % 0 % 1026,1 hPa 0,0 l/m 0,9 km/h (0 Bft) 0,00 h 0,00 h 1,4 km/h (1 Bft)
13.02.2012 05:00 12,6 C -2,5 C 0,0 UV-I 0,2 C 46 % 94 % 0 % 1025,3 hPa 0,0 l/m 2,0 km/h (1 Bft) 0,00 h 0,00 h 3,7 km/h (1 Bft)
13.02.2012 06:00 12,6 C -2,2 C 0,0 UV-I 0,2 C 46 % 95 % 0 % 1024,6 hPa 0,0 l/m 3,6 km/h (1 Bft) 0,00 h 0,00 h 6,4 km/h (2 Bft)
13.02.2012 07:00 12,5 C -1,9 C 0,0 UV-I 0,2 C 46 % 96 % 0 % 1024,4 hPa 0,0 l/m 3,0 km/h (1 Bft) 0,00 h 0,73 h 4,0 km/h (1 Bft)
13.02.2012 08:00 12,6 C -1,7 C 0,0 UV-I 0,3 C 46 % 96 % 8 % 1024,0 hPa 0,0 l/m 2,9 km/h (1 Bft) 0,13 h 0,53 h 4,8 km/h (1 Bft)
13.02.2012 09:00 12,6 C -1,2 C 0,0 UV-I 0,4 C 46 % 96 % 11 % 1023,7 hPa 0,0 l/m 2,6 km/h (1 Bft) 0,00 h 0,00 h 4,2 km/h (1 Bft)
13.02.2012 10:00 12,7 C -0,6 C 0,0 UV-I 0,7 C 46 % 97 % 19 % 1023,2 hPa 0,1 l/m 3,1 km/h (1 Bft) 0,00 h 0,00 h 6,0 km/h (2 Bft)
13.02.2012 11:00 12,8 C 0,6 C 0,0 UV-I 1,0 C 47 % 97 % 28 % 1022,5 hPa 0,0 l/m 3,6 km/h (1 Bft) 0,00 h 0,00 h 5,8 km/h (2 Bft)
13.02.2012 12:00 13,1 C 1,4 C 0,1 UV-I 1,5 C 46 % 97 % 44 % 1021,7 hPa 1,0 l/m 4,4 km/h (1 Bft) 0,00 h 0,00 h 7,5 km/h (2 Bft)
13.02.2012 13:00 13,2 C 2,1 C 0,0 UV-I 1,1 C 46 % 96 % 32 % 1020,9 hPa 0,1 l/m 4,9 km/h (1 Bft) 0,00 h 0,00 h 6,6 km/h (2 Bft)
13.02.2012 14:00 13,2 C 2,3 C 0,0 UV-I 0,4 C 46 % 96 % 11 % 1020,3 hPa 0,1 l/m 4,3 km/h (1 Bft) 0,00 h 0,00 h 6,5 km/h (2 Bft)
13.02.2012 15:00 13,1 C 2,5 C 0,0 UV-I 0,1 C 47 % 96 % 4 % 1019,1 hPa 0,0 l/m 4,0 km/h (1 Bft) 0,00 h 0,00 h 6,9 km/h (2 Bft)
13.02.2012 16:00 13,0 C 2,5 C 0,0 UV-I 0,0 C 47 % 96 % 0 % 1018,5 hPa 0,0 l/m 2,7 km/h (1 Bft) 0,00 h 0,00 h 4,9 km/h (1 Bft)
13.02.2012 17:00 13,0 C 2,2 C 0,0 UV-I 0,0 C 47 % 96 % 0 % 1017,5 hPa 0,1 l/m 2,6 km/h (1 Bft) 0,00 h 0,40 h 3,9 km/h (1 Bft)
13.02.2012 18:00 12,9 C 1,9 C 0,0 UV-I 0,0 C 47 % 96 % 0 % 1016,9 hPa 0,1 l/m 0,7 km/h (0 Bft) 0,00 h 0,00 h 1,1 km/h (1 Bft)
13.02.2012 19:00 12,8 C 2,0 C 0,0 UV-I 0,0 C 48 % 96 % 0 % 1016,6 hPa 0,0 l/m 0,2 km/h (0 Bft) 0,00 h 0,00 h 0,7 km/h (0 Bft)
13.02.2012 20:00 12,8 C 2,0 C 0,0 UV-I 0,0 C 48 % 96 % 0 % 1016,1 hPa 0,0 l/m 0,1 km/h (0 Bft) 0,00 h 0,00 h 0,0 km/h (0 Bft)
13.02.2012 21:00 12,8 C 2,0 C 0,0 UV-I 0,0 C 48 % 96 % 0 % 1015,7 hPa 0,0 l/m 0,5 km/h (0 Bft) 0,00 h 0,00 h 0,9 km/h (0 Bft)
13.02.2012 22:00 12,8 C 1,9 C 0,0 UV-I 0,0 C 48 % 96 % 0 % 1015,4 hPa 0,0 l/m 0,8 km/h (0 Bft) 0,00 h 0,00 h 1,0 km/h (0 Bft)
13.02.2012 23:00 12,8 C 1,7 C 0,0 UV-I 0,0 C 48 % 96 % 0 % 1015,2 hPa 0,1 l/m 0,4 km/h (0 Bft) 0,00 h 0,00 h 0,5 km/h (0 Bft)
14.02.2012 00:00 12,8 C 1,6 C 0,0 UV-I 0,0 C 48 % 96 % 0 % 1015,3 hPa 0,0 l/m 0,7 km/h (0 Bft) 0,00 h 0,00 h 1,7 km/h (1 Bft)
14.02.2012 01:00 12,8 C 1,5 C 0,0 UV-I 0,0 C 48 % 96 % 0 % 1015,1 hPa 0,0 l/m 0,3 km/h (0 Bft) 0,00 h 0,03 h 1,0 km/h (0 Bft)
14.02.2012 02:00 12,8 C 1,5 C 0,0 UV-I 0,0 C 48 % 97 % 0 % 1014,8 hPa 0,1 l/m 0,1 km/h (0 Bft) 0,00 h 0,00 h 0,6 km/h (0 Bft)
14.02.2012 03:00 12,9 C 1,5 C 0,0 UV-I 0,0 C 48 % 97 % 0 % 1014,4 hPa 0,0 l/m 0,3 km/h (0 Bft) 0,00 h 0,00 h 0,3 km/h (0 Bft)
14.02.2012 04:00 13,0 C 1,5 C 0,0 UV-I 0,0 C 48 % 97 % 0 % 1014,4 hPa 0,0 l/m 0,1 km/h (0 Bft) 0,00 h 0,00 h 0,1 km/h (0 Bft)
14.02.2012 05:00 13,0 C 1,5 C 0,0 UV-I 0,0 C 49 % 97 % 0 % 1014,5 hPa 0,6 l/m 0,4 km/h (0 Bft) 0,00 h 0,63 h 0,7 km/h (0 Bft)
14.02.2012 06:00 13,0 C 1,8 C 0,0 UV-I 0,0 C 49 % 97 % 0 % 1014,5 hPa 0,4 l/m 0,9 km/h (0 Bft) 0,00 h 0,53 h 2,0 km/h (1 Bft)
14.02.2012 07:00 13,0 C 2,2 C 0,0 UV-I 0,0 C 49 % 97 % 0 % 1014,7 hPa 0,1 l/m 1,3 km/h (1 Bft) 0,00 h 0,03 h 3,6 km/h (1 Bft)
14.02.2012 08:00 13,0 C 2,7 C 0,0 UV-I 0,0 C 49 % 97 % 0 % 1015,1 hPa 0,0 l/m 3,6 km/h (1 Bft) 0,00 h 0,00 h 5,9 km/h (2 Bft)
14.02.2012 09:00 13,1 C 3,0 C 0,0 UV-I 0,0 C 49 % 97 % 1 % 1016,1 hPa 0,0 l/m 5,6 km/h (1 Bft) 0,00 h 0,00 h 9,0 km/h (2 Bft)
14.02.2012 10:00 13,2 C 3,6 C 0,0 UV-I 0,8 C 49 % 98 % 24 % 1016,6 hPa 0,0 l/m 5,8 km/h (2 Bft) 0,00 h 0,00 h 10,8 km/h (2 Bft)
14.02.2012 11:00 13,5 C 4,5 C 0,4 UV-I 2,7 C 49 % 97 % 72 % 1016,8 hPa 0,0 l/m 7,4 km/h (2 Bft) 0,30 h 0,00 h 10,2 km/h (2 Bft)
14.02.2012 12:00 13,7 C 5,4 C 0,3 UV-I 1,8 C 48 % 95 % 50 % 1017,2 hPa 0,0 l/m 7,6 km/h (2 Bft) 0,00 h 0,00 h 12,8 km/h (3 Bft)
14.02.2012 13:00 13,9 C 5,6 C 0,1 UV-I 1,2 C 48 % 93 % 33 % 1016,7 hPa 0,0 l/m 6,6 km/h (2 Bft) 0,00 h 0,00 h 9,4 km/h (2 Bft)
14.02.2012 14:00 13,9 C 5,7 C 0,0 UV-I 0,7 C 48 % 90 % 19 % 1016,3 hPa 0,0 l/m 6,9 km/h (2 Bft) 0,00 h 0,10 h 8,6 km/h (2 Bft)
14.02.2012 15:00 13,8 C 4,8 C 0,0 UV-I 0,1 C 50 % 90 % 2 % 1016,1 hPa 0,1 l/m 6,8 km/h (2 Bft) 0,00 h 0,30 h 9,9 km/h (2 Bft)
14.02.2012 16:00 13,7 C 4,6 C 0,0 UV-I 0,0 C 51 % 91 % 1 % 1016,2 hPa 0,1 l/m 5,1 km/h (1 Bft) 0,00 h 0,33 h 7,4 km/h (2 Bft)
14.02.2012 17:00 13,5 C 3,8 C 0,0 UV-I 0,0 C 52 % 92 % 0 % 1015,9 hPa 0,0 l/m 2,3 km/h (1 Bft) 0,00 h 0,00 h 4,4 km/h (1 Bft)
14.02.2012 18:00 13,4 C 3,6 C 0,0 UV-I 0,0 C 52 % 93 % 0 % 1015,7 hPa 0,0 l/m 3,9 km/h (1 Bft) 0,00 h 0,00 h 6,4 km/h (2 Bft)
14.02.2012 19:00 13,4 C 3,6 C 0,0 UV-I 0,0 C 52 % 94 % 0 % 1015,3 hPa 0,1 l/m 4,5 km/h (1 Bft) 0,00 h 0,87 h 7,6 km/h (2 Bft)
14.02.2012 20:00 13,4 C 3,3 C 0,0 UV-I 0,0 C 52 % 94 % 0 % 1014,7 hPa 0,7 l/m 6,1 km/h (2 Bft) 0,00 h 1,00 h 7,8 km/h (2 Bft)
14.02.2012 21:00 13,3 C 3,3 C 0,0 UV-I 0,0 C 53 % 95 % 0 % 1013,6 hPa 0,1 l/m 5,4 km/h (1 Bft) 0,00 h 0,67 h 11,0 km/h (2 Bft)
14.02.2012 22:00 13,2 C 3,6 C 0,0 UV-I 0,0 C 53 % 96 % 0 % 1012,7 hPa 0,4 l/m 8,4 km/h (2 Bft) 0,00 h 0,83 h 11,4 km/h (2 Bft)
14.02.2012 23:00 13,2 C 3,8 C 0,0 UV-I 0,0 C 53 % 97 % 0 % 1011,8 hPa 0,2 l/m 9,8 km/h (2 Bft) 0,00 h 0,83 h 15,1 km/h (3 Bft)
15.02.2012 00:00 13,2 C 4,0 C 0,0 UV-I 0,0 C 53 % 97 % 0 % 1010,7 hPa 0,0 l/m 11,5 km/h (2 Bft) 0,00 h 0,00 h 15,4 km/h (3 Bft)
15.02.2012 01:00 13,3 C 4,3 C 0,0 UV-I 0,0 C 53 % 97 % 0 % 1010,0 hPa 0,1 l/m 9,6 km/h (2 Bft) 0,00 h 0,10 h 14,4 km/h (3 Bft)
15.02.2012 02:00 13,4 C 4,6 C 0,0 UV-I 0,0 C 53 % 97 % 0 % 1009,7 hPa 0,1 l/m 10,3 km/h (2 Bft) 0,00 h 0,00 h 14,3 km/h (3 Bft)
15.02.2012 03:00 13,4 C 5,1 C 0,0 UV-I 0,0 C 53 % 97 % 0 % 1009,3 hPa 0,0 l/m 9,6 km/h (2 Bft) 0,00 h 0,20 h 13,6 km/h (3 Bft)
15.02.2012 04:00 13,5 C 5,2 C 0,0 UV-I 0,0 C 52 % 97 % 0 % 1008,8 hPa 0,2 l/m 10,5 km/h (2 Bft) 0,00 h 0,67 h 16,8 km/h (3 Bft)
15.02.2012 05:00 13,4 C 5,2 C 0,0 UV-I 0,0 C 52 % 96 % 0 % 1008,7 hPa 0,2 l/m 11,9 km/h (2 Bft) 0,00 h 0,43 h 17,9 km/h (3 Bft)
15.02.2012 06:00 13,4 C 4,9 C 0,0 UV-I 0,0 C 53 % 96 % 0 % 1008,9 hPa 0,0 l/m 9,4 km/h (2 Bft) 0,00 h 0,73 h 12,9 km/h (3 Bft)
15.02.2012 07:00 13,5 C 5,0 C 0,0 UV-I 0,0 C 53 % 95 % 0 % 1009,6 hPa 0,0 l/m 11,8 km/h (2 Bft) 0,00 h 0,03 h 17,3 km/h (3 Bft)
15.02.2012 08:00 13,6 C 4,8 C 0,0 UV-I 0,0 C 53 % 94 % 0 % 1010,5 hPa 0,1 l/m 9,2 km/h (2 Bft) 0,00 h 0,07 h 13,2 km/h (3 Bft)
15.02.2012 09:00 13,6 C 4,8 C 0,0 UV-I 0,0 C 53 % 92 % 0 % 1011,3 hPa 0,0 l/m 9,6 km/h (2 Bft) 0,00 h 0,00 h 14,0 km/h (3 Bft)
15.02.2012 10:00 13,6 C 5,0 C 0,0 UV-I 0,0 C 53 % 90 % 0 % 1012,2 hPa 0,0 l/m 10,1 km/h (2 Bft) 0,00 h 0,00 h 14,6 km/h (3 Bft)
15.02.2012 11:00 13,7 C 5,2 C 0,0 UV-I 0,0 C 52 % 88 % 0 % 1012,8 hPa 0,0 l/m 11,4 km/h (2 Bft) 0,00 h 0,03 h 15,9 km/h (3 Bft)
15.02.2012 12:00 13,8 C 5,5 C 0,0 UV-I 0,0 C 52 % 85 % 0 % 1013,0 hPa 0,0 l/m 13,2 km/h (3 Bft) 0,00 h 0,30 h 17,4 km/h (3 Bft)
15.02.2012 13:00 13,9 C 5,4 C 0,1 UV-I 0,0 C 52 % 87 % 1 % 1013,3 hPa 0,0 l/m 12,9 km/h (3 Bft) 0,00 h 0,00 h 16,3 km/h (3 Bft)
15.02.2012 14:00 13,8 C 5,6 C 0,1 UV-I 0,2 C 51 % 85 % 5 % 1013,5 hPa 0,1 l/m 12,0 km/h (2 Bft) 0,00 h 0,37 h 16,5 km/h (3 Bft)
15.02.2012 15:00 13,6 C 5,1 C 0,0 UV-I 0,0 C 51 % 87 % 1 % 1013,9 hPa 0,0 l/m 13,4 km/h (3 Bft) 0,00 h 0,03 h 18,6 km/h (3 Bft)
15.02.2012 16:00 13,5 C 4,5 C 0,0 UV-I 0,0 C 50 % 88 % 0 % 1014,2 hPa 1,0 l/m 13,3 km/h (3 Bft) 0,00 h 0,50 h 18,6 km/h (3 Bft)
15.02.2012 17:00 13,3 C 3,4 C 0,0 UV-I 0,0 C 51 % 92 % 0 % 1014,9 hPa 1,2 l/m 14,6 km/h (3 Bft) 0,00 h 0,90 h 21,9 km/h (4 Bft)
15.02.2012 18:00 13,1 C 3,1 C 0,0 UV-I 0,0 C 51 % 93 % 0 % 1015,6 hPa 0,4 l/m 3,8 km/h (1 Bft) 0,00 h 0,03 h 4,7 km/h (1 Bft)
15.02.2012 19:00 13,0 C 3,2 C 0,0 UV-I 0,0 C 51 % 94 % 0 % 1016,1 hPa 0,0 l/m 4,8 km/h (1 Bft) 0,00 h 0,00 h 8,8 km/h (2 Bft)
15.02.2012 20:00 13,0 C 3,2 C 0,0 UV-I 0,0 C 51 % 93 % 0 % 1017,0 hPa 0,0 l/m 3,6 km/h (1 Bft) 0,00 h 0,00 h 4,9 km/h (1 Bft)
15.02.2012 21:00 12,8 C 3,1 C 0,0 UV-I 0,0 C 51 % 94 % 0 % 1018,1 hPa 0,0 l/m 3,0 km/h (1 Bft) 0,00 h 0,00 h 4,5 km/h (1 Bft)
15.02.2012 22:00 12,9 C 3,2 C 0,0 UV-I 0,0 C 51 % 94 % 0 % 1018,4 hPa 0,0 l/m 2,5 km/h (1 Bft) 0,00 h 0,00 h 4,5 km/h (1 Bft)
15.02.2012 23:00 12,9 C 3,0 C 0,0 UV-I 0,0 C 50 % 93 % 0 % 1019,0 hPa 0,0 l/m 2,2 km/h (1 Bft) 0,00 h 0,00 h 3,3 km/h (1 Bft)
16.02.2012 00:00 12,9 C 3,2 C 0,0 UV-I 0,0 C 50 % 93 % 0 % 1019,6 hPa 0,0 l/m 5,3 km/h (1 Bft) 0,00 h 0,00 h 9,7 km/h (2 Bft)
16.02.2012 01:00 12,8 C 3,1 C 0,0 UV-I 0,0 C 50 % 93 % 0 % 1020,1 hPa 0,0 l/m 2,4 km/h (1 Bft) 0,00 h 0,00 h 3,9 km/h (1 Bft)
16.02.2012 02:00 12,8 C 2,8 C 0,0 UV-I 0,0 C 50 % 93 % 0 % 1020,6 hPa 0,0 l/m 1,1 km/h (1 Bft) 0,00 h 0,00 h 1,1 km/h (0 Bft)
16.02.2012 03:00 12,8 C 2,1 C 0,0 UV-I 0,0 C 50 % 94 % 0 % 1021,0 hPa 0,0 l/m 0,1 km/h (0 Bft) 0,00 h 0,00 h 0,0 km/h (0 Bft)
16.02.2012 04:00 12,8 C 2,3 C 0,0 UV-I 0,0 C 50 % 95 % 0 % 1021,2 hPa 0,0 l/m 0,1 km/h (0 Bft) 0,00 h 0,00 h 0,1 km/h (0 Bft)
16.02.2012 05:00 12,9 C 2,6 C 0,0 UV-I 0,0 C 50 % 95 % 0 % 1021,7 hPa 0,0 l/m 0,6 km/h (0 Bft) 0,00 h 0,00 h 1,2 km/h (1 Bft)
16.02.2012 06:00 12,9 C 2,6 C 0,0 UV-I 0,0 C 50 % 95 % 0 % 1022,1 hPa 0,0 l/m 1,4 km/h (1 Bft) 0,00 h 0,00 h 2,8 km/h (1 Bft)
16.02.2012 07:00 12,8 C 2,9 C 0,0 UV-I 0,0 C 51 % 96 % 0 % 1022,5 hPa 0,0 l/m 0,7 km/h (0 Bft) 0,00 h 0,00 h 0,8 km/h (0 Bft)
16.02.2012 08:00 12,9 C 3,1 C 0,0 UV-I 0,0 C 52 % 96 % 0 % 1023,3 hPa 0,2 l/m 1,2 km/h (1 Bft) 0,00 h 0,30 h 2,3 km/h (1 Bft)
16.02.2012 09:00 12,8 C 3,5 C 0,0 UV-I 0,0 C 52 % 97 % 0 % 1023,8 hPa 0,1 l/m 2,1 km/h (1 Bft) 0,00 h 0,00 h 3,8 km/h (1 Bft)
16.02.2012 10:00 13,0 C 4,1 C 0,0 UV-I 0,1 C 53 % 97 % 2 % 1024,0 hPa 0,0 l/m 2,0 km/h (1 Bft) 0,00 h 0,00 h 2,7 km/h (1 Bft)
16.02.2012 11:00 13,1 C 4,7 C 0,0 UV-I 0,4 C 53 % 98 % 11 % 1024,5 hPa 0,1 l/m 4,9 km/h (1 Bft) 0,00 h 0,00 h 6,7 km/h (2 Bft)
16.02.2012 12:00 13,2 C 5,4 C 0,0 UV-I 0,9 C 54 % 97 % 25 % 1024,7 hPa 0,0 l/m 4,8 km/h (1 Bft) 0,00 h 0,00 h 7,3 km/h (2 Bft)
16.02.2012 13:00 13,4 C 6,2 C 0,2 UV-I 1,4 C 54 % 98 % 41 % 1024,4 hPa 0,0 l/m 5,2 km/h (1 Bft) 0,07 h 0,00 h 7,7 km/h (2 Bft)
16.02.2012 14:00 13,7 C 7,1 C 0,1 UV-I 1,5 C 54 % 96 % 44 % 1024,4 hPa 0,0 l/m 4,7 km/h (1 Bft) 0,03 h 0,00 h 7,4 km/h (2 Bft)
16.02.2012 15:00 13,8 C 6,8 C 0,0 UV-I 0,0 C 54 % 95 % 0 % 1024,0 hPa 0,0 l/m 1,5 km/h (1 Bft) 0,00 h 0,00 h 3,1 km/h (1 Bft)
16.02.2012 16:00 13,7 C 6,5 C 0,0 UV-I 0,0 C 54 % 95 % 0 % 1023,8 hPa 0,0 l/m 0,9 km/h (0 Bft) 0,00 h 0,00 h 1,7 km/h (1 Bft)
16.02.2012 17:00 13,6 C 6,3 C 0,0 UV-I 0,0 C 54 % 95 % 0 % 1023,4 hPa 0,0 l/m 1,0 km/h (0 Bft) 0,00 h 0,00 h 2,0 km/h (1 Bft)
16.02.2012 18:00 13,5 C 6,0 C 0,0 UV-I 0,0 C 55 % 96 % 0 % 1023,7 hPa 0,0 l/m 0,9 km/h (0 Bft) 0,00 h 0,00 h 2,1 km/h (1 Bft)
16.02.2012 19:00 13,4 C 5,8 C 0,0 UV-I 0,0 C 55 % 96 % 0 % 1024,0 hPa 0,0 l/m 1,4 km/h (1 Bft) 0,00 h 0,00 h 3,0 km/h (1 Bft)
16.02.2012 20:00 13,4 C 5,7 C 0,0 UV-I 0,0 C 55 % 95 % 0 % 1023,8 hPa 0,0 l/m 2,7 km/h (1 Bft) 0,00 h 0,00 h 4,1 km/h (1 Bft)
16.02.2012 21:00 13,3 C 5,6 C 0,0 UV-I 0,0 C 55 % 95 % 0 % 1023,6 hPa 0,0 l/m 2,9 km/h (1 Bft) 0,00 h 0,00 h 6,0 km/h (2 Bft)
16.02.2012 22:00 13,2 C 5,3 C 0,0 UV-I 0,0 C 55 % 96 % 0 % 1023,5 hPa 0,0 l/m 3,8 km/h (1 Bft) 0,00 h 0,00 h 6,2 km/h (2 Bft)
16.02.2012 23:00 13,2 C 5,0 C 0,0 UV-I 0,0 C 55 % 96 % 0 % 1023,3 hPa 0,0 l/m 4,3 km/h (1 Bft) 0,00 h 0,00 h 7,4 km/h (2 Bft)
17.02.2012 00:00 13,2 C 4,8 C 0,0 UV-I 0,0 C 55 % 96 % 0 % 1023,1 hPa 0,0 l/m 4,3 km/h (1 Bft) 0,00 h 0,00 h 6,9 km/h (2 Bft)
17.02.2012 01:00 13,1 C 5,0 C 0,0 UV-I 0,0 C 55 % 95 % 0 % 1022,8 hPa 0,0 l/m 5,3 km/h (1 Bft) 0,00 h 0,00 h 9,4 km/h (2 Bft)
17.02.2012 02:00 13,1 C 5,1 C 0,0 UV-I 0,0 C 55 % 95 % 0 % 1022,4 hPa 0,0 l/m 6,3 km/h (2 Bft) 0,00 h 0,00 h 9,2 km/h (2 Bft)
17.02.2012 03:00 13,1 C 5,1 C 0,0 UV-I 0,0 C 55 % 95 % 0 % 1021,8 hPa 0,0 l/m 5,9 km/h (2 Bft) 0,00 h 0,03 h 9,0 km/h (2 Bft)
17.02.2012 04:00 13,0 C 4,9 C 0,0 UV-I 0,0 C 55 % 96 % 0 % 1021,4 hPa 0,0 l/m 7,1 km/h (2 Bft) 0,00 h 0,00 h 8,8 km/h (2 Bft)
17.02.2012 05:00 13,0 C 4,7 C 0,0 UV-I 0,0 C 55 % 97 % 0 % 1021,3 hPa 0,1 l/m 5,7 km/h (1 Bft) 0,00 h 0,50 h 8,5 km/h (2 Bft)
17.02.2012 06:00 13,0 C 4,7 C 0,0 UV-I 0,0 C 56 % 97 % 0 % 1021,1 hPa 0,4 l/m 6,7 km/h (2 Bft) 0,00 h 0,30 h 10,2 km/h (2 Bft)
17.02.2012 07:00 12,9 C 4,7 C 0,0 UV-I 0,0 C 56 % 97 % 0 % 1021,1 hPa 0,1 l/m 7,6 km/h (2 Bft) 0,00 h 0,33 h 10,9 km/h (2 Bft)
17.02.2012 08:00 12,8 C 4,7 C 0,0 UV-I 0,0 C 56 % 98 % 0 % 1021,4 hPa 0,1 l/m 7,0 km/h (2 Bft) 0,00 h 0,00 h 9,5 km/h (2 Bft)
17.02.2012 09:00 12,9 C 4,9 C 0,0 UV-I 0,0 C 56 % 98 % 0 % 1021,8 hPa 0,2 l/m 6,1 km/h (2 Bft) 0,00 h 0,67 h 10,2 km/h (2 Bft)
17.02.2012 10:00 13,0 C 5,1 C 0,0 UV-I 0,0 C 57 % 98 % 0 % 1022,1 hPa 0,2 l/m 5,9 km/h (2 Bft) 0,00 h 0,17 h 8,3 km/h (2 Bft)
17.02.2012 11:00 13,1 C 5,3 C 0,0 UV-I 0,2 C 57 % 98 % 4 % 1022,4 hPa 0,1 l/m 5,6 km/h (1 Bft) 0,00 h 0,13 h 7,4 km/h (2 Bft)
17.02.2012 12:00 13,2 C 5,8 C 0,0 UV-I 0,6 C 57 % 98 % 17 % 1022,5 hPa 0,0 l/m 6,7 km/h (2 Bft) 0,00 h 0,00 h 8,5 km/h (2 Bft)
17.02.2012 13:00 13,2 C 6,1 C 0,0 UV-I 0,4 C 57 % 98 % 12 % 1021,9 hPa 0,0 l/m 6,0 km/h (2 Bft) 0,00 h 0,00 h 7,8 km/h (2 Bft)
17.02.2012 14:00 13,4 C 6,1 C 0,0 UV-I 0,2 C 57 % 98 % 4 % 1021,8 hPa 0,0 l/m 4,3 km/h (1 Bft) 0,00 h 0,00 h 6,4 km/h (2 Bft)
17.02.2012 15:00 13,4 C 6,3 C 0,0 UV-I 0,3 C 57 % 98 % 9 % 1021,7 hPa 0,0 l/m 4,0 km/h (1 Bft) 0,00 h 0,00 h 5,5 km/h (1 Bft)
17.02.2012 16:00 13,9 C 6,8 C 0,0 UV-I 0,7 C 57 % 97 % 21 % 1021,7 hPa 0,0 l/m 2,4 km/h (1 Bft) 0,00 h 0,00 h 3,8 km/h (1 Bft)
17.02.2012 17:00 13,8 C 6,7 C 0,0 UV-I 0,0 C 56 % 97 % 0 % 1021,5 hPa 0,0 l/m 3,0 km/h (1 Bft) 0,00 h 0,00 h 4,7 km/h (1 Bft)
17.02.2012 18:00 13,6 C 6,5 C 0,0 UV-I 0,0 C 57 % 97 % 0 % 1021,7 hPa 0,0 l/m 2,7 km/h (1 Bft) 0,00 h 0,00 h 4,4 km/h (1 Bft)
17.02.2012 19:00 13,4 C 6,5 C 0,0 UV-I 0,0 C 58 % 96 % 0 % 1021,7 hPa 0,0 l/m 3,1 km/h (1 Bft) 0,00 h 0,00 h 4,8 km/h (1 Bft)
17.02.2012 20:00 13,4 C 6,2 C 0,0 UV-I 0,0 C 58 % 97 % 0 % 1021,4 hPa 0,2 l/m 2,6 km/h (1 Bft) 0,00 h 0,53 h 5,3 km/h (1 Bft)
17.02.2012 21:00 13,4 C 6,0 C 0,0 UV-I 0,0 C 58 % 97 % 0 % 1021,0 hPa 0,1 l/m 2,7 km/h (1 Bft) 0,00 h 0,07 h 3,8 km/h (1 Bft)
17.02.2012 22:00 13,4 C 6,0 C 0,0 UV-I 0,0 C 58 % 97 % 0 % 1020,4 hPa 0,0 l/m 3,1 km/h (1 Bft) 0,00 h 0,00 h 5,9 km/h (2 Bft)
17.02.2012 23:00 13,4 C 6,1 C 0,0 UV-I 0,0 C 58 % 97 % 0 % 1020,2 hPa 0,1 l/m 2,7 km/h (1 Bft) 0,00 h 0,33 h 4,5 km/h (1 Bft)
18.02.2012 00:00 13,4 C 6,1 C 0,0 UV-I 0,0 C 58 % 97 % 0 % 1020,1 hPa 0,0 l/m 3,7 km/h (1 Bft) 0,00 h 0,00 h 6,4 km/h (2 Bft)
18.02.2012 01:00 13,4 C 6,2 C 0,0 UV-I 0,0 C 58 % 97 % 0 % 1019,8 hPa 0,0 l/m 2,7 km/h (1 Bft) 0,00 h 0,00 h 5,5 km/h (1 Bft)
18.02.2012 02:00 13,5 C 6,3 C 0,0 UV-I 0,0 C 58 % 97 % 0 % 1019,1 hPa 0,0 l/m 3,0 km/h (1 Bft) 0,00 h 0,00 h 5,0 km/h (1 Bft)
18.02.2012 03:00 13,5 C 6,2 C 0,0 UV-I 0,0 C 59 % 98 % 0 % 1018,3 hPa 0,0 l/m 2,9 km/h (1 Bft) 0,00 h 0,00 h 3,6 km/h (1 Bft)
18.02.2012 04:00 13,4 C 6,3 C 0,0 UV-I 0,0 C 59 % 98 % 0 % 1017,5 hPa 0,0 l/m 2,8 km/h (1 Bft) 0,00 h 0,00 h 4,1 km/h (1 Bft)
18.02.2012 05:00 13,5 C 6,4 C 0,0 UV-I 0,0 C 59 % 98 % 0 % 1017,1 hPa 0,0 l/m 3,2 km/h (1 Bft) 0,00 h 0,00 h 5,5 km/h (1 Bft)
18.02.2012 06:00 13,6 C 6,6 C 0,0 UV-I 0,0 C 59 % 98 % 0 % 1016,7 hPa 0,0 l/m 3,5 km/h (1 Bft) 0,00 h 0,00 h 5,7 km/h (1 Bft)
18.02.2012 07:00 13,5 C 6,8 C 0,0 UV-I 0,0 C 59 % 98 % 0 % 1016,1 hPa 0,0 l/m 4,8 km/h (1 Bft) 0,00 h 0,00 h 8,3 km/h (2 Bft)
18.02.2012 08:00 13,5 C 7,1 C 0,0 UV-I 0,0 C 60 % 98 % 0 % 1015,8 hPa 0,0 l/m 5,6 km/h (1 Bft) 0,00 h 0,00 h 8,7 km/h (2 Bft)
18.02.2012 09:00 13,4 C 7,4 C 0,0 UV-I 0,0 C 60 % 97 % 0 % 1015,5 hPa 0,0 l/m 9,0 km/h (2 Bft) 0,00 h 0,00 h 12,7 km/h (3 Bft)
18.02.2012 10:00 13,5 C 7,9 C 0,0 UV-I 0,0 C 60 % 96 % 1 % 1015,4 hPa 0,0 l/m 10,0 km/h (2 Bft) 0,00 h 0,00 h 13,1 km/h (3 Bft)
18.02.2012 11:00 13,5 C 8,2 C 0,0 UV-I 0,4 C 60 % 93 % 11 % 1015,3 hPa 0,0 l/m 10,1 km/h (2 Bft) 0,00 h 0,00 h 14,1 km/h (3 Bft)
18.02.2012 12:00 13,7 C 8,7 C 0,0 UV-I 0,4 C 59 % 92 % 11 % 1014,6 hPa 0,0 l/m 8,2 km/h (2 Bft) 0,00 h 0,00 h 13,1 km/h (3 Bft)
18.02.2012 13:00 13,9 C 9,1 C 0,0 UV-I 0,3 C 59 % 90 % 10 % 1014,0 hPa 0,0 l/m 10,7 km/h (2 Bft) 0,00 h 0,00 h 15,4 km/h (3 Bft)
18.02.2012 14:00 13,9 C 9,1 C 0,0 UV-I 0,0 C 59 % 90 % 1 % 1013,2 hPa 0,0 l/m 9,3 km/h (2 Bft) 0,00 h 0,00 h 14,8 km/h (3 Bft)
18.02.2012 15:00 13,9 C 9,1 C 0,0 UV-I 0,2 C 59 % 90 % 6 % 1012,4 hPa 0,0 l/m 9,0 km/h (2 Bft) 0,00 h 0,00 h 12,2 km/h (2 Bft)
18.02.2012 16:00 13,9 C 8,7 C 0,0 UV-I 0,0 C 59 % 90 % 0 % 1011,6 hPa 0,0 l/m 9,1 km/h (2 Bft) 0,00 h 0,13 h 12,8 km/h (3 Bft)
18.02.2012 17:00 13,9 C 8,6 C 0,0 UV-I 0,0 C 59 % 90 % 0 % 1010,6 hPa 0,0 l/m 8,5 km/h (2 Bft) 0,00 h 0,23 h 12,7 km/h (3 Bft)
18.02.2012 18:00 13,8 C 8,7 C 0,0 UV-I 0,0 C 59 % 89 % 0 % 1009,8 hPa 0,1 l/m 10,0 km/h (2 Bft) 0,00 h 0,10 h 15,8 km/h (3 Bft)
18.02.2012 19:00 13,8 C 8,5 C 0,0 UV-I 0,0 C 59 % 90 % 0 % 1009,1 hPa 0,0 l/m 8,8 km/h (2 Bft) 0,00 h 0,03 h 14,2 km/h (3 Bft)
18.02.2012 20:00 13,6 C 8,5 C 0,0 UV-I 0,0 C 59 % 88 % 0 % 1008,4 hPa 0,1 l/m 10,1 km/h (2 Bft) 0,00 h 0,30 h 13,3 km/h (3 Bft)
18.02.2012 21:00 13,6 C 8,5 C 0,0 UV-I 0,0 C 58 % 88 % 0 % 1008,0 hPa 0,0 l/m 10,8 km/h (2 Bft) 0,00 h 0,43 h 14,8 km/h (3 Bft)
18.02.2012 22:00 13,6 C 8,3 C 0,0 UV-I 0,0 C 58 % 89 % 0 % 1007,3 hPa 0,2 l/m 10,8 km/h (2 Bft) 0,00 h 0,37 h 15,4 km/h (3 Bft)
18.02.2012 23:00 13,6 C 7,7 C 0,0 UV-I 0,0 C 59 % 91 % 0 % 1007,1 hPa 0,6 l/m 11,6 km/h (2 Bft) 0,00 h 1,00 h 16,2 km/h (3 Bft)
19.02.2012 00:00 13,6 C 6,4 C 0,0 UV-I 0,0 C 59 % 91 % 0 % 1007,4 hPa 1,4 l/m 12,4 km/h (3 Bft) 0,00 h 0,57 h 17,6 km/h (3 Bft)
19.02.2012 01:00 13,6 C 3,9 C 0,0 UV-I 0,0 C 58 % 93 % 0 % 1008,8 hPa 0,4 l/m 4,0 km/h (1 Bft) 0,00 h 0,50 h 5,4 km/h (1 Bft)
19.02.2012 02:00 13,5 C 3,4 C 0,0 UV-I 0,0 C 57 % 94 % 0 % 1009,4 hPa 0,1 l/m 2,0 km/h (1 Bft) 0,00 h 0,00 h 3,5 km/h (1 Bft)
19.02.2012 03:00 13,4 C 3,2 C 0,0 UV-I 0,0 C 56 % 95 % 0 % 1009,8 hPa 0,0 l/m 5,6 km/h (1 Bft) 0,00 h 0,00 h 9,2 km/h (2 Bft)
19.02.2012 04:00 13,2 C 2,8 C 0,0 UV-I 0,0 C 55 % 95 % 0 % 1010,5 hPa 0,0 l/m 4,3 km/h (1 Bft) 0,00 h 0,00 h 6,7 km/h (2 Bft)
19.02.2012 05:00 13,2 C 2,4 C 0,0 UV-I 0,0 C 54 % 95 % 0 % 1011,0 hPa 0,0 l/m 4,0 km/h (1 Bft) 0,00 h 0,00 h 6,5 km/h (2 Bft)
19.02.2012 06:00 13,1 C 2,4 C 0,0 UV-I 0,0 C 54 % 95 % 0 % 1011,9 hPa 0,0 l/m 5,2 km/h (1 Bft) 0,00 h 0,07 h 8,4 km/h (2 Bft)
19.02.2012 07:00 13,0 C 2,0 C 0,0 UV-I 0,0 C 53 % 95 % 0 % 1012,8 hPa 0,0 l/m 4,1 km/h (1 Bft) 0,00 h 0,00 h 5,4 km/h (1 Bft)
19.02.2012 08:00 13,0 C 1,8 C 0,0 UV-I 0,0 C 53 % 95 % 0 % 1014,1 hPa 0,0 l/m 4,2 km/h (1 Bft) 0,00 h 0,00 h 6,7 km/h (2 Bft)
19.02.2012 09:00 13,0 C 2,5 C 0,0 UV-I 0,9 C 52 % 95 % 26 % 1015,3 hPa 0,0 l/m 7,1 km/h (2 Bft) 0,23 h 0,00 h 11,0 km/h (2 Bft)
19.02.2012 10:00 13,1 C 3,5 C 0,5 UV-I 4,0 C 52 % 93 % 86 % 1016,4 hPa 0,0 l/m 8,7 km/h (2 Bft) 0,83 h 0,00 h 11,8 km/h (2 Bft)
19.02.2012 11:00 13,1 C 4,7 C 0,7 UV-I 4,8 C 51 % 88 % 98 % 1017,4 hPa 0,0 l/m 10,3 km/h (2 Bft) 0,93 h 0,00 h 15,2 km/h (3 Bft)
19.02.2012 12:00 13,4 C 5,5 C 1,5 UV-I 4,5 C 50 % 82 % 98 % 1018,3 hPa 0,0 l/m 9,5 km/h (2 Bft) 1,00 h 0,00 h 15,0 km/h (3 Bft)
19.02.2012 13:00 14,4 C 6,4 C 1,9 UV-I 4,8 C 48 % 76 % 96 % 1020,8 hPa 0,0 l/m 10,7 km/h (2 Bft) 0,83 h 0,00 h 11,7 km/h (2 Bft)
19.02.2012 14:00 16,1 C 5,9 C 1,1 UV-I 3,1 C 43 % 75 % 66 % 1024,3 hPa 0,0 l/m 13,8 km/h (3 Bft) 0,63 h 0,00 h 19,3 km/h (3 Bft)
19.02.2012 15:00 15,6 C 3,4 C 0,2 UV-I 0,1 C 43 % 86 % 2 % 1022,3 hPa 0,2 l/m 7,9 km/h (2 Bft) 0,00 h 0,67 h 10,6 km/h (2 Bft)
19.02.2012 16:00 14,7 C 2,8 C 0,0 UV-I 0,0 C 45 % 89 % 0 % 1021,8 hPa 0,2 l/m 7,8 km/h (2 Bft) 0,00 h 0,60 h 12,3 km/h (3 Bft)
19.02.2012 17:00 14,0 C 2,3 C 0,0 UV-I 0,0 C 47 % 91 % 0 % 1022,6 hPa 0,1 l/m 2,1 km/h (1 Bft) 0,00 h 0,43 h 2,7 km/h (1 Bft)
19.02.2012 18:00 13,6 C 2,3 C 0,0 UV-I 0,0 C 48 % 92 % 0 % 1023,5 hPa 0,0 l/m 2,5 km/h (1 Bft) 0,00 h 0,00 h 3,4 km/h (1 Bft)
19.02.2012 19:00 13,2 C 2,1 C 0,0 UV-I 0,0 C 48 % 90 % 0 % 1024,8 hPa 0,0 l/m 2,9 km/h (1 Bft) 0,00 h 0,00 h 4,5 km/h (1 Bft)
19.02.2012 20:00 13,0 C 1,7 C 0,0 UV-I 0,0 C 48 % 91 % 0 % 1025,8 hPa 0,0 l/m 3,4 km/h (1 Bft) 0,00 h 0,17 h 6,4 km/h (2 Bft)
19.02.2012 21:00 12,9 C 1,2 C 0,0 UV-I 0,0 C 48 % 92 % 0 % 1026,7 hPa 0,0 l/m 2,7 km/h (1 Bft) 0,00 h 0,00 h 4,7 km/h (1 Bft)
19.02.2012 22:00 12,8 C 0,6 C 0,0 UV-I 0,0 C 48 % 93 % 0 % 1027,8 hPa 0,0 l/m 1,2 km/h (1 Bft) 0,00 h 0,00 h 2,5 km/h (1 Bft)
19.02.2012 23:00 12,7 C 0,3 C 0,0 UV-I 0,0 C 48 % 94 % 0 % 1028,2 hPa 0,0 l/m 1,5 km/h (1 Bft) 0,00 h 0,00 h 2,2 km/h (1 Bft)
Min-Datum _ 13.02.12 13.02.12 13.02.12 13.02.12 19.02.12 19.02.12 13.02.12 18.02.12 - 13.02.12 - - 13.02.12
_ Min-Zeit 04:20 00:14 00:00 15:32 14:24 13:54 00:00 22:26 - 04:24 - - 00:06
Minimum _ 12,4 C -3,2 C 0,0 UV-I 0,0 C 42 % 72 % 0 % 1007,1 hPa - 0,0 km/h (0 Bft) - - 0,0 km/h (0 Bft)
Max-Datum _ 19.02.12 18.02.12 19.02.12 19.02.12 18.02.12 14.02.12 14.02.12 19.02.12 19.02.12 15.02.12 13.02.12 13.02.12 18.02.12
_ Max-Zeit 14:34 13:20 13:34 13:44 07:54 07:50 11:24 14:46 00:32 17:22 08:04 07:16 14:48
Maximum _ 16,4 C 9,3 C 2,5 UV-I 6,3 C 60 % 98 % 100 % 1032,4 hPa 1,4 l/m 21,3 km/h
W (4 Bft)
0,03 h 0,03 h 53,0 km/h
W (7 Bft)
Durchschnitt _ 13,3 C 4,1 C 0,0 UV-I 0,3 C 52 % 94 % 6 % 1018,0 hPa #14,4 l/m 5,2 km/h (1 Bft) #5:00 h #21:16 h 7,8 km/h (2 Bft)
© 2012 W. Hausmann